{"data":{"norad_id":64578,"intl_designator":"2025-135BC","name":"ICEYE-X57","alt_names":[],"object_type":"PAYLOAD","status":"ACTIVE","operator":null,"country":"US","launch_date":"2025-06-23","launch_site_code":"AFWTR","launch_vehicle":null,"mission":null,"orbit_class":"UNKNOWN","rcs_meters":null,"size_class":null,"mass_kg":null,"dimensions":null,"purposes":[],"wikipedia_slug":null,"has_3d_model":false,"image_url":null,"decayed_at":null,"tle_current":{"epoch":"2026-05-25T04:46:25.518144Z","epoch_age_seconds":64820,"freshness":"FRESH","line1":"1 64578U 25135BC  26145.19890646  .00004333  00000+0  34549-3 0  9997","line2":"2 64578  97.7870 261.6042 0001770  52.5774 307.5611 15.00857756 50570","mean_motion":15.00857756,"eccentricity":0.000177,"inclination_deg":97.787,"raan_deg":261.6042,"arg_perigee_deg":52.5774,"mean_anomaly_deg":307.5611,"bstar":0.00034549,"rev_number":5057,"period_min":95.945134989861,"perigee_km":563.02118462336,"apogee_km":565.47878961681,"semimajor_km":6942.3869871201,"source":"CELESTRAK","updated_at":"2026-05-25T13:38:04.623430Z"}}}